{"data":{"norad_id":59540,"epoch":"2026-05-24T17:59:37.127328Z","epoch_age_seconds":106885,"freshness":"FRESH","line1":"1 59540U 24074G   26144.74973527  .00000529  00000+0  28743-4 0  9994","line2":"2 59540  43.0029 274.2422 0001639 270.5502  89.5162 15.27575835117644","mean_motion":15.27575835,"eccentricity":0.0001639,"inclination_deg":43.0029,"raan_deg":274.2422,"arg_perigee_deg":270.5502,"mean_anomaly_deg":89.5162,"bstar":2.8743e-5,"rev_number":11764,"period_min":94.267005735921,"perigee_km":481.93701713111,"apogee_km":484.18611802157,"semimajor_km":6861.1985675763,"source":"CELESTRAK","updated_at":"2026-05-25T13:38:18.979689Z"}}